Location: Dziadowski
(50.3833°N, 20.0333°E)
Time: 09:18:31
(UTC+00:00)

Cosmos 1408 Rocket - Pass Details

Date: 18 January 2026
Orbit: 594 x 623 km, 82.6° (Epoch: 16 February)

Event Time Altitude Azimuth Distance (km) Brightness Sun altitude
Exits shadow 03:50:58 57° 163° (SSE) 713 3.8 -25.0°
Maximum altitude 03:51:45 75° 98° (E) 629 3.6 -24.9°
Drops below altitude 10° 03:56:03 10° 13° (NNE) 1,951 6.2 -24.2°
Sets 03:58:15 0° 12° (NNE) 2,856 7.1 -23.9°
